Date,TemperatureHighF,TemperatureAvgF,TemperatureLowF,DewpointHighF,DewpointAvgF,DewpointLowF,HumidityHigh,HumidityAvg,HumidityLow,PressureMaxIn,PressureMinIn,WindSpeedMaxMPH,WindSpeedAvgMPH,GustSpeedMaxMPH,PrecipitationSumIn
2013-5-1,83.6,73.2,65.2,67.9,64.3,61.8,92,75,53,29.91,29.73,20,4,20,0.00
2013-5-2,68.7,52.3,43.4,62.3,46.5,36.9,92,81,73,30.30,29.88,31,5,31,0.05
2013-5-3,66.6,52.5,40.0,37.3,32.2,25.1,82,52,23,30.28,30.03,25,5,25,0.00
2013-5-4,69.8,69.3,68.8,35.0,32.5,23.5,28,26,18,29.93,29.87,15,4,15,0.00
2013-5-5,69.0,62.3,49.1,47.1,43.4,38.9,69,50,43,30.12,30.01,18,4,18,0.00
2013-5-6,79.5,69.3,49.7,54.6,52.0,46.6,91,56,41,30.08,29.95,13,1,13,0.00
2013-5-7,85.3,73.8,60.8,55.4,53.1,51.1,74,51,33,30.02,29.88,15,2,15,0.00
2013-5-8,87.2,75.6,63.6,58.6,55.4,51.1,75,52,33,29.94,29.80,23,4,23,0.00
2013-5-9,70.7,68.3,66.0,67.1,65.3,62.6,94,90,83,29.93,29.80,18,2,18,0.33
2013-5-10,83.4,72.8,65.0,66.8,40.8,-99.9,96,78,50,29.95,29.82,11,1,0,0.00
2013-5-17,92.4,87.0,81.8,73.8,72.8,71.2,75,63,51,29.78,29.72,22,4,22,0.00
2013-5-18,93.6,82.5,72.3,73.4,70.9,67.6,87,69,49,29.83,29.69,24,4,24,0.00
2013-5-19,90.0,81.0,71.0,71.0,68.5,64.9,86,67,53,29.77,29.60,27,6,27,0.00
2013-5-20,90.8,81.5,74.3,72.4,70.0,68.4,83,69,52,29.76,29.58,28,6,28,0.00
2013-5-21,82.7,78.6,74.9,71.8,70.2,68.7,84,76,68,29.72,29.60,23,5,23,0.07
2013-5-22,86.3,80.5,72.7,63.9,59.6,52.9,74,51,34,29.87,29.80,11,2,0,0.01
2013-5-23,87.1,76.3,70.6,73.9,69.7,63.8,95,81,62,30.00,29.82,18,3,18,0.00
2013-5-24,86.0,78.2,68.1,73.2,70.2,63.3,94,77,61,30.14,29.94,19,3,19,0.51
2013-5-25,85.2,71.9,67.1,72.4,67.9,63.6,95,88,61,30.11,29.99,21,2,21,0.59
2013-5-26,87.3,78.1,70.9,73.1,70.4,68.8,96,79,57,30.03,29.86,23,3,23,0.01
2013-5-27,78.2,74.3,72.1,70.4,68.4,67.4,86,82,75,29.93,29.87,24,5,24,0.00
2013-5-28,85.8,81.0,72.5,69.5,67.6,66.0,85,65,54,29.83,29.70,25,6,25,0.00
2013-5-29,83.3,77.3,70.0,72.9,70.6,66.7,90,80,70,29.77,29.65,30,6,30,0.42
2013-5-30,89.3,85.3,80.6,74.3,73.0,71.5,78,67,57,29.72,29.63,24,5,24,0.00
2013-5-31,89.7,80.2,76.9,74.6,72.9,71.6,86,79,59,29.77,29.69,25,5,25,0.00